When you browse on this site, cookies collect data to enhance your experience and personalize the content and advertising you see.
Visit our Privacy Policy to learn more. By continuing to use the site, you agree to this use of cookies and data.
  • In Deutschland
  • Länderverzeichnis
  • Für 7 Tage
  • Wassertemperatur
  • Satellitenkarten
  • Wetterkarte
  • Widgets
  • user-avatar
    Anmelden

    Stündliche Wetter Kamennyy Brod

    Heute, 19 Februar, Dienstag

    Zeit Temperatur Niederschläge Wind Luftdruck Luftfeuchtigkeit
    00:00 -4°C° 0 mm 5 m/S 765 mmHg 69%
    01:00 -4°C° 0 mm 4 m/S 765 mmHg 68%
    02:00 -4°C° 0 mm 4 m/S 766 mmHg 67%
    03:00 -4°C° 0 mm 3 m/S 765 mmHg 65%
    04:00 -4°C° 0 mm 3 m/S 766 mmHg 66%
    05:00 -4°C° 0 mm 3 m/S 766 mmHg 66%
    06:00 -5°C° 0 mm 4 m/S 767 mmHg 66%
    07:00 -5°C° 0 mm 4 m/S 767 mmHg 66%
    08:00 -5°C° 0 mm 4 m/S 768 mmHg 66%
    09:00 -5°C° 0 mm 4 m/S 769 mmHg 67%
    10:00 -4°C° 0 mm 3 m/S 769 mmHg 63%
    11:00 -2°C° 0 mm 3 m/S 769 mmHg 58%
    12:00 -2°C° 0 mm 3 m/S 769 mmHg 54%
    13:00 -1°C° 0 mm 3 m/S 770 mmHg 53%
    14:00 -1°C° 0 mm 2 m/S 770 mmHg 52%
    15:00 +1°C° 0 mm 2 m/S 769 mmHg 51%
    16:00 -1°C° 0 mm 2 m/S 769 mmHg 56%
    17:00 -1°C° 0 mm 2 m/S 770 mmHg 61%
    18:00 0°C° 0 mm 1 m/S 770 mmHg 66%
    19:00 0°C° 0 mm 1 m/S 770 mmHg 68%
    20:00 -1°C° 0 mm 1 m/S 770 mmHg 69%
    21:00 -2°C° 0 mm 0 m/S 770 mmHg 70%
    22:00 -1°C° 0 mm 1 m/S 769 mmHg 69%
    23:00 -1°C° 0 mm 1 m/S 769 mmHg 67%

    Morgen, 20 Februar, Mittwoch

    Zeit Temperatur Niederschläge Wind Luftdruck Luftfeuchtigkeit
    00:00 -1°C° 0 mm 1 m/S 769 mmHg 66%
    01:00 -1°C° 0 mm 1 m/S 769 mmHg 65%
    02:00 -1°C° 0 mm 1 m/S 768 mmHg 64%
    03:00 -1°C° 0 mm 1 m/S 768 mmHg 62%
    04:00 -2°C° 0 mm 2 m/S 767 mmHg 61%
    05:00 -2°C° 0 mm 2 m/S 767 mmHg 60%
    06:00 -2°C° 0 mm 2 m/S 767 mmHg 59%
    07:00 -2°C° 0 mm 2 m/S 766 mmHg 57%
    08:00 -1°C° 0 mm 2 m/S 766 mmHg 55%
    09:00 -1°C° 0 mm 3 m/S 766 mmHg 53%
    10:00 +1°C° 0 mm 3 m/S 765 mmHg 51%
    11:00 +2°C° 0 mm 3 m/S 765 mmHg 49%
    12:00 +3°C° 0 mm 4 m/S 765 mmHg 46%
    13:00 +4°C° 0 mm 4 m/S 764 mmHg 50%
    14:00 +4°C° 0 mm 4 m/S 764 mmHg 54%
    15:00 +3°C° 0 mm 5 m/S 763 mmHg 57%
    16:00 +4°C° 0 mm 4 m/S 763 mmHg 62%
    17:00 +3°C° 0 mm 4 m/S 763 mmHg 67%
    18:00 +2°C° 0 mm 3 m/S 762 mmHg 72%
    19:00 +1°C° 0 mm 3 m/S 762 mmHg 74%
    20:00 +1°C° 0 mm 3 m/S 762 mmHg 75%
    21:00 +1°C° 0 mm 3 m/S 762 mmHg 77%
    22:00 +1°C° 0 mm 3 m/S 762 mmHg 78%
    23:00 0°C° 0 mm 3 m/S 761 mmHg 80%

    übermorgen, 21 Februar, Donnerstag

    Zeit Temperatur Niederschläge Wind Luftdruck Luftfeuchtigkeit
    00:00 0°C° 0 mm 3 m/S 761 mmHg 82%
    01:00 0°C° 0 mm 4 m/S 761 mmHg 85%
    02:00 0°C° 0 mm 4 m/S 761 mmHg 88%
    03:00 0°C° 0 mm 4 m/S 760 mmHg 91%
    04:00 0°C° 0.1 mm 4 m/S 760 mmHg 92%
    05:00 +1°C° 0.1 mm 5 m/S 760 mmHg 93%
    06:00 +1°C° 0.1 mm 5 m/S 759 mmHg 93%
    07:00 +1°C° 0.2 mm 5 m/S 759 mmHg 93%
    08:00 +1°C° 0.2 mm 5 m/S 759 mmHg 93%
    09:00 +2°C° 0.2 mm 6 m/S 759 mmHg 93%
    10:00 +2°C° 0.2 mm 5 m/S 759 mmHg 92%
    11:00 +2°C° 0.2 mm 5 m/S 758 mmHg 90%
    12:00 +2°C° 0.2 mm 5 m/S 758 mmHg 89%
    13:00 +3°C° 0 mm 6 m/S 758 mmHg 78%
    14:00 +4°C° 0 mm 7 m/S 757 mmHg 66%
    15:00 +5°C° 0 mm 8 m/S 757 mmHg 55%
    16:00 +4°C° 0.2 mm 7 m/S 757 mmHg 60%
    17:00 +3°C° 0.2 mm 7 m/S 757 mmHg 64%
    18:00 +3°C° 0.2 mm 7 m/S 757 mmHg 68%
    19:00 0°C° 0.1 mm 7 m/S 758 mmHg 67%
    20:00 -1°C° 0.1 mm 7 m/S 758 mmHg 65%
    21:00 -3°C° 0.1 mm 7 m/S 759 mmHg 63%
    22:00 -3°C° 0 mm 7 m/S 759 mmHg 63%
    23:00 -3°C° 0 mm 6 m/S 760 mmHg 62%

    22 Februar, Freitag

    Zeit Temperatur Niederschläge Wind Luftdruck Luftfeuchtigkeit
    00:00 -4°C° 0 mm 6 m/S 760 mmHg 62%
    01:00 -4°C° 0 mm 6 m/S 760 mmHg 60%
    02:00 -4°C° 0 mm 5 m/S 760 mmHg 59%
    03:00 -4°C° 0 mm 5 m/S 761 mmHg 58%
    04:00 -4°C° 0 mm 5 m/S 760 mmHg 57%
    05:00 -4°C° 0 mm 5 m/S 760 mmHg 57%
    06:00 -4°C° 0 mm 5 m/S 760 mmHg 56%
    07:00 -4°C° 0 mm 5 m/S 761 mmHg 55%
    08:00 -4°C° 0 mm 5 m/S 761 mmHg 54%
    09:00 -4°C° 0 mm 5 m/S 761 mmHg 53%
    10:00 -2°C° 0 mm 5 m/S 761 mmHg 52%
    11:00 -2°C° 0 mm 5 m/S 760 mmHg 50%
    12:00 -1°C° 0 mm 5 m/S 760 mmHg 49%
    13:00 -2°C° 0.1 mm 4 m/S 760 mmHg 56%
    14:00 -2°C° 0.1 mm 4 m/S 759 mmHg 63%
    15:00 -2°C° 0.1 mm 3 m/S 759 mmHg 70%
    16:00 -2°C° 0.6 mm 3 m/S 759 mmHg 76%
    17:00 -4°C° 0.6 mm 3 m/S 759 mmHg 83%
    18:00 -4°C° 0.6 mm 3 m/S 759 mmHg 90%
    19:00 -5°C° 0.7 mm 4 m/S 759 mmHg 90%
    20:00 -6°C° 0.7 mm 5 m/S 760 mmHg 89%
    21:00 -8°C° 0.7 mm 6 m/S 760 mmHg 89%
    22:00 -9°C° 0.6 mm 6 m/S 760 mmHg 89%
    23:00 -10°C° 0.6 mm 6 m/S 761 mmHg 89%

    23 Februar, Samstag

    Zeit Temperatur Niederschläge Wind Luftdruck Luftfeuchtigkeit
    00:00 -12°C° 0.6 mm 7 m/S 761 mmHg 88%
    01:00 -12°C° 0.4 mm 7 m/S 761 mmHg 88%
    02:00 -11°C° 0.4 mm 6 m/S 762 mmHg 87%
    03:00 -12°C° 0.4 mm 6 m/S 762 mmHg 87%
    04:00 -12°C° 0.3 mm 6 m/S 762 mmHg 87%
    05:00 -12°C° 0.3 mm 6 m/S 762 mmHg 86%
    06:00 -12°C° 0.3 mm 6 m/S 763 mmHg 86%
    07:00 -12°C° 0.2 mm 6 m/S 763 mmHg 86%
    08:00 -12°C° 0.2 mm 6 m/S 764 mmHg 85%
    09:00 -12°C° 0.2 mm 6 m/S 764 mmHg 85%
    10:00 -11°C° 0.1 mm 6 m/S 764 mmHg 84%
    11:00 -11°C° 0.1 mm 6 m/S 765 mmHg 83%
    12:00 -10°C° 0.1 mm 6 m/S 765 mmHg 83%
    13:00 -10°C° 0 mm 5 m/S 765 mmHg 82%
    14:00 -10°C° 0 mm 5 m/S 765 mmHg 82%
    15:00 -10°C° 0 mm 5 m/S 765 mmHg 81%
    16:00 -10°C° 0.1 mm 5 m/S 766 mmHg 82%
    17:00 -10°C° 0.1 mm 5 m/S 766 mmHg 84%
    18:00 -11°C° 0.1 mm 5 m/S 766 mmHg 85%
    19:00 -11°C° 0 mm 5 m/S 767 mmHg 85%
    20:00 -10°C° 0 mm 4 m/S 767 mmHg 86%
    21:00 -11°C° 0 mm 4 m/S 767 mmHg 87%
    22:00 -11°C° 0 mm 4 m/S 767 mmHg 87%
    23:00 -11°C° 0 mm 4 m/S 767 mmHg 88%

    24 Februar, Sonntag

    Zeit Temperatur Niederschläge Wind Luftdruck Luftfeuchtigkeit
    00:00 -10°C° 0 mm 3 m/S 767 mmHg 88%
    01:00 -10°C° 0 mm 3 m/S 767 mmHg 88%
    02:00 -10°C° 0 mm 3 m/S 767 mmHg 89%
    03:00 -10°C° 0 mm 3 m/S 767 mmHg 89%
    04:00 -10°C° 0 mm 3 m/S 767 mmHg 89%
    05:00 -12°C° 0 mm 3 m/S 767 mmHg 90%
    06:00 -12°C° 0 mm 3 m/S 767 mmHg 90%
    07:00 -12°C° 0.1 mm 3 m/S 767 mmHg 89%
    08:00 -10°C° 0.1 mm 3 m/S 768 mmHg 89%
    09:00 -10°C° 0.1 mm 3 m/S 768 mmHg 88%
    10:00 -9°C° 0 mm 3 m/S 768 mmHg 87%
    11:00 -8°C° 0 mm 3 m/S 768 mmHg 85%
    12:00 -7°C° 0 mm 2 m/S 768 mmHg 84%
    13:00 -6°C° 0 mm 2 m/S 768 mmHg 83%
    14:00 -6°C° 0 mm 2 m/S 768 mmHg 83%
    15:00 -5°C° 0 mm 2 m/S 767 mmHg 83%
    16:00 -6°C° 0 mm 2 m/S 768 mmHg 84%
    17:00 -6°C° 0 mm 2 m/S 768 mmHg 86%
    18:00 -6°C° 0 mm 2 m/S 768 mmHg 88%
    19:00 -6°C° 0.1 mm 2 m/S 768 mmHg 89%
    20:00 -7°C° 0.1 mm 2 m/S 768 mmHg 89%
    21:00 -7°C° 0.1 mm 2 m/S 768 mmHg 90%
    22:00 -8°C° 0.2 mm 3 m/S 768 mmHg 90%
    23:00 -8°C° 0.2 mm 3 m/S 768 mmHg 91%
    Mehr zeigen